[[{"header":{"parameterUnit":"m.s-1","parameterCategory":1,"la1":30.2991,"la2":30.254,"lo1":-89.0895,"lo2":-89.0444,"dy":0.0017,"dx":0.0017,"nx":28,"ny":28,"refTime":"2024-03-19T21:00:00:Z","depth":0,"parameterNumber":2,"parameterNumberName":"U-component_of_WINDS"},"data":[0,0,0,0,0,0,0,0,0,0,0,0,0,0,0,0,0,0,0,0,0,0,0,0,0,0,0,0,0,0,0,0,0,0,0,0,0,0,0,0,0,0,0,0,0,0,0,0,0,0,0,0,0,0,0,0,0,0,1.8812,1.8813,0,1.889,1.8891,1.8892,1.8895,1.8895,1.8894,1.8893,1.8971,1.8974,1.8976,0,0,0,0,0,0,0,0,0,0,0,0,0,1.8663,1.8665,1.8812,1.8813,1.8814,1.889,1.8891,1.8892,1.8896,1.8894,1.8893,1.8892,1.897,1.8973,1.8977,0,0,0,0,0,0,0,0,0,0,0,0,0,1.8733,1.8666,1.8811,1.8825,1.8827,1.889,1.8891,1.8892,1.8896,1.8894,1.8893,1.8892,1.8969,1.8973,1.8977,1.9032,0,0,1.8991,1.8992,0,0,0,0,0,0,0,0,1.8729,1.8738,1.8822,1.8824,1.8826,1.8882,1.8867,1.8939,1.8896,1.887,1.8893,1.8891,1.8942,1.8948,1.8966,1.9035,1.9039,1.8991,1.8994,1.8995,1.8997,0,0,0,0,0,0,0,1.8724,1.8735,1.8843,1.8823,1.8826,1.8826,1.8834,1.8881,1.8912,1.8872,1.8872,1.8882,1.8943,1.8962,1.8968,1.904,1.8991,1.8995,1.8997,1.8999,1.9155,1.9157,0,0,0,0,0,0,1.8717,1.8731,1.884,1.8845,1.8773,1.883,1.8839,1.8865,1.8912,1.8918,1.8883,1.8881,1.8955,1.8963,1.8971,1.9036,1.8995,1.9,1.9002,1.9154,1.9156,1.9157,0,0,0,0,0,0,1.8714,1.8726,1.8837,1.8788,1.8802,1.8834,1.8863,1.8867,1.8886,1.892,1.8926,1.8896,1.8954,1.8965,1.9016,1.9039,1.9002,1.9006,1.9152,1.9154,1.9156,1.9167,0,0,0,0,0,0,1.8709,1.8725,1.8747,1.8788,1.8805,1.8882,1.8864,1.887,1.8894,1.8893,1.8934,1.894,1.8954,1.9009,1.902,1.9044,1.9009,1.915,1.9153,1.9156,1.9165,1.917,1.9174,0,0,0,0,0,1.8704,1.8747,1.8748,1.8761,1.8833,1.8883,1.8892,1.8908,1.8896,1.8917,1.8939,1.8939,1.9035,1.9015,1.9027,1.9052,1.9149,1.9152,1.9155,1.9163,1.9169,1.9174,0,0,0,0,0,0,1.8707,1.8753,1.8754,1.8813,1.8844,1.8884,1.8911,1.8914,1.8949,1.8947,1.8965,1.8974,1.9025,1.9044,1.9021,1.9106,1.909,1.9096,1.9092,1.9097,1.9102,1.9095,1.9013,0,0,0,0,0,1.8715,1.8753,1.879,1.8838,1.8854,1.888,1.8902,1.8912,1.8945,1.8958,1.8984,1.9015,1.9052,1.9076,1.9112,1.9168,1.9176,1.9192,1.9196,1.9199,1.9204,1.9233,1.924,1.9168,1.9168,1.9168,0,0,1.873,1.876,1.8783,1.8839,1.8865,1.8902,1.8891,1.8932,1.896,1.8964,1.9014,1.9034,1.907,1.9123,1.9148,1.9141,1.9225,1.9204,1.9206,1.9209,1.9237,1.9244,1.925,1.9171,1.917,1.917,0,0,1.8778,1.8805,1.8847,1.8873,1.8911,1.8928,1.8938,1.8978,1.8991,1.9042,1.9045,1.9078,1.9142,1.9167,1.9188,1.9244,1.9245,1.9256,1.9278,1.9306,1.9311,1.9317,1.9335,1.9341,1.926,1.9261,1.9261,0,1.8792,1.8851,1.8868,1.8908,1.8932,1.8939,1.898,1.9004,1.9052,1.9068,1.9059,1.9139,1.9164,1.9222,1.9236,1.9254,1.9264,1.9251,1.931,1.9315,1.932,1.9337,1.9344,1.9261,1.9261,1.9261,1.9261,0,1.8865,1.8905,1.8934,1.8981,1.9008,1.9049,1.9071,1.9097,1.9104,1.9121,1.9171,1.9201,1.9243,1.9258,1.9265,1.9317,1.9311,1.9306,1.929,1.9327,1.9344,1.9351,1.9263,1.9262,1.9262,1.9262,0,0,1.8917,1.8972,1.8982,1.9003,1.9046,1.9076,1.9117,1.9158,1.9178,1.9212,1.9245,1.9298,1.9293,1.9317,1.9327,1.9353,1.9393,1.9344,1.9345,1.935,1.9449,1.9452,1.9459,1.9394,1.9395,1.9396,1.9446,0,1.8968,1.9041,1.9057,1.9119,1.9155,1.9161,1.9196,1.9225,1.9243,1.9275,1.9294,1.9331,1.9323,1.9337,1.9362,1.9382,1.9412,1.9379,1.9423,1.9424,1.9412,1.9468,1.9472,1.9517,1.9452,1.9454,1.9454,0,1.9038,1.9072,1.9138,1.9174,1.919,1.9221,1.9259,1.9291,1.9323,1.9334,1.936,1.9368,1.9409,1.9391,1.9447,1.9424,1.9443,1.9455,1.9457,1.9461,1.9441,1.9472,1.9532,1.9538,1.9465,1.9464,1.9464,0,1.9066,1.9129,1.9176,1.9194,1.9238,1.926,1.9279,1.9311,1.9334,1.9367,1.9382,1.9419,1.9439,1.9467,1.9484,1.947,1.9537,1.9522,1.9546,1.9545,1.9559,1.9557,1.9621,1.9574,1.9574,1.9574,1.9573,0,1.9121,1.916,1.9189,1.9218,1.9262,1.928,1.9322,1.9341,1.9369,1.9401,1.9409,1.9438,1.9459,1.9491,1.9504,1.9547,1.9556,1.9565,1.9568,1.9563,1.9562,1.9575,1.9571,1.9575,1.9575,1.9575,1.9574,0,1.916,1.9181,1.9232,1.927,1.9281,1.9311,1.9343,1.937,1.9387,1.9427,1.9437,1.9464,1.9502,1.9522,1.9569,1.9578,1.9625,1.9627,1.9614,1.9615,1.9637,1.9634,1.971,1.972,1.9668,1.9668,1.9668,0,1.9192,1.9223,1.9264,1.9285,1.9305,1.9341,1.9364,1.9382,1.9406,1.9445,1.9468,1.9506,1.9537,1.9597,1.962,1.9656,1.9657,1.9682,1.9663,1.9657,1.9655,1.9653,1.9655,1.9684,1.9685,1.9685,1.9686,0,1.9247,1.9256,1.929,1.9327,1.9355,1.9385,1.9415,1.9432,1.9455,1.9481,1.952,1.9545,1.9593,1.963,1.9667,1.9686,1.9689,1.9691,1.9699,1.9694,1.9684,1.9688,1.9621,1.9689,1.9689,1.9689,1.9688,1.9688,1.9283,1.9309,1.9342,1.9379,1.9403,1.943,1.9458,1.9478,1.9511,1.9551,1.956,1.9601,1.9631,1.9682,1.9702,1.9733,1.9728,1.9739,1.9741,1.9743,1.9743,1.968,1.974,1.974,1.974,1.974,1.974,0,1.9337,1.9358,1.9392,1.9433,1.9461,1.9463,1.9495,1.9519,1.9554,1.9583,1.9614,1.9657,1.9693,1.9719,1.9755,1.9775,1.9777,1.9784,1.9782,1.9786,1.9746,1.9736,1.9781,1.9781,1.9781,1.9781,1.9781,1.9781,1.9368,1.9412,1.9425,1.9481,1.9501,1.9541,1.9559,1.9584,1.9607,1.9655,1.9685,1.9702,1.9729,1.9767,1.9799,1.9806,1.9818,1.9824,1.9831,1.9793,1.9789,1.9784,1.9774,1.9827,1.9827,1.9867,1.9867,1.9868]},{"header":{"parameterUnit":"m.s-1","parameterCategory":1,"la1":30.2991,"la2":30.254,"lo1":-89.0895,"lo2":-89.0444,"dy":0.0017,"dx":0.0017,"nx":28,"ny":28,"refTime":"2024-03-19T21:00:00:Z","depth":0,"parameterNumber":3,"parameterNumberName":"V-component_of_WINDS"},"data":[0,0,0,0,0,0,0,0,0,0,0,0,0,0,0,0,0,0,0,0,0,0,0,0,0,0,0,0,0,0,0,0,0,0,0,0,0,0,0,0,0,0,0,0,0,0,0,0,0,0,0,0,0,0,0,0,0,0,-1.466,-1.4661,0,-1.4732,-1.4733,-1.4734,-1.4745,-1.4745,-1.4744,-1.4743,-1.4818,-1.4821,-1.4823,0,0,0,0,0,0,0,0,0,0,0,0,0,-1.4532,-1.4534,-1.466,-1.4661,-1.4662,-1.4732,-1.4733,-1.4734,-1.4745,-1.4744,-1.4744,-1.4743,-1.4817,-1.482,-1.4823,0,0,0,0,0,0,0,0,0,0,0,0,0,-1.4594,-1.4535,-1.466,-1.4676,-1.4678,-1.4732,-1.4733,-1.4735,-1.4745,-1.4744,-1.4744,-1.4743,-1.4816,-1.482,-1.4824,-1.4867,0,0,-1.4836,-1.4837,0,0,0,0,0,0,0,0,-1.4591,-1.4599,-1.4672,-1.4675,-1.4677,-1.4729,-1.4716,-1.4779,-1.4746,-1.472,-1.4743,-1.4742,-1.4789,-1.4795,-1.4811,-1.4871,-1.4874,-1.4836,-1.4838,-1.484,-1.4841,0,0,0,0,0,0,0,-1.4586,-1.4596,-1.4689,-1.4673,-1.4676,-1.468,-1.4687,-1.4728,-1.4759,-1.4722,-1.4723,-1.4731,-1.479,-1.4807,-1.4813,-1.4875,-1.4836,-1.4839,-1.4842,-1.4843,-1.4975,-1.4976,0,0,0,0,0,0,-1.4579,-1.4592,-1.4686,-1.4691,-1.4631,-1.4683,-1.4691,-1.4713,-1.4759,-1.4765,-1.4732,-1.4732,-1.4801,-1.4808,-1.4815,-1.4869,-1.484,-1.4844,-1.4846,-1.4974,-1.4975,-1.4976,0,0,0,0,0,0,-1.4576,-1.4587,-1.4683,-1.4642,-1.4654,-1.4686,-1.471,-1.4715,-1.4732,-1.4766,-1.4772,-1.4744,-1.4801,-1.481,-1.4854,-1.4872,-1.4845,-1.4849,-1.4972,-1.4974,-1.4976,-1.4977,0,0,0,0,0,0,-1.4573,-1.4586,-1.4603,-1.4642,-1.4656,-1.4721,-1.4711,-1.4717,-1.4739,-1.4739,-1.4779,-1.4784,-1.4801,-1.4849,-1.4858,-1.4877,-1.4852,-1.4971,-1.4973,-1.4975,-1.4976,-1.4979,-1.4981,0,0,0,0,0,-1.4568,-1.4601,-1.4604,-1.4615,-1.4678,-1.4722,-1.473,-1.4748,-1.474,-1.4757,-1.4779,-1.4783,-1.4869,-1.4853,-1.4864,-1.4884,-1.497,-1.4972,-1.4975,-1.4974,-1.4978,-1.4981,0,0,0,0,0,0,-1.4563,-1.4606,-1.461,-1.4656,-1.4685,-1.4723,-1.4745,-1.4751,-1.4783,-1.4782,-1.4803,-1.4812,-1.4855,-1.4874,-1.4856,-1.4929,-1.4919,-1.4924,-1.4915,-1.4918,-1.4921,-1.4915,-1.4855,0,0,0,0,0,-1.4567,-1.4599,-1.4635,-1.4672,-1.4687,-1.4713,-1.4733,-1.4745,-1.4776,-1.4788,-1.4813,-1.4844,-1.4877,-1.4899,-1.4932,-1.4979,-1.4988,-1.4998,-1.5001,-1.5003,-1.5007,-1.5033,-1.5038,-1.4985,-1.4985,-1.4985,0,0,-1.4576,-1.4603,-1.4622,-1.4672,-1.4696,-1.4728,-1.4724,-1.4758,-1.4783,-1.4793,-1.4837,-1.4856,-1.4892,-1.4937,-1.4959,-1.4955,-1.5024,-1.5007,-1.5008,-1.5011,-1.5037,-1.5042,-1.5046,-1.4986,-1.4986,-1.4986,0,0,-1.4609,-1.4633,-1.4666,-1.469,-1.4727,-1.4744,-1.4752,-1.479,-1.4804,-1.4848,-1.4856,-1.4886,-1.4944,-1.4968,-1.4988,-1.5031,-1.5036,-1.5042,-1.5056,-1.5081,-1.5086,-1.509,-1.5105,-1.511,-1.5045,-1.5045,-1.5045,0,-1.4615,-1.4664,-1.4683,-1.4717,-1.4739,-1.475,-1.4784,-1.4807,-1.4852,-1.4867,-1.4862,-1.4935,-1.4959,-1.5011,-1.5021,-1.5037,-1.5047,-1.5037,-1.5084,-1.5088,-1.5091,-1.5106,-1.5112,-1.5046,-1.5046,-1.5046,-1.5046,0,-1.467,-1.4705,-1.4728,-1.4771,-1.4795,-1.4829,-1.4853,-1.4876,-1.4885,-1.4904,-1.4948,-1.4978,-1.5018,-1.5031,-1.5041,-1.5084,-1.508,-1.5079,-1.5069,-1.5097,-1.5111,-1.5116,-1.5046,-1.5046,-1.5046,-1.5046,0,0,-1.4701,-1.4754,-1.4762,-1.4782,-1.4823,-1.485,-1.4885,-1.4923,-1.4942,-1.4973,-1.5003,-1.5052,-1.5051,-1.5074,-1.5087,-1.5109,-1.5141,-1.5105,-1.5106,-1.511,-1.5191,-1.5191,-1.5197,-1.5145,-1.5146,-1.5147,-1.5188,0,-1.4738,-1.48,-1.4819,-1.4871,-1.4903,-1.4914,-1.4945,-1.4973,-1.4992,-1.5022,-1.5043,-1.5077,-1.5073,-1.5087,-1.511,-1.5132,-1.5157,-1.513,-1.5173,-1.5174,-1.5163,-1.5204,-1.5205,-1.5242,-1.5193,-1.5194,-1.5195,0,-1.479,-1.4822,-1.4877,-1.4914,-1.4928,-1.4955,-1.4992,-1.502,-1.5053,-1.5065,-1.5091,-1.5102,-1.5139,-1.5128,-1.518,-1.516,-1.5179,-1.5193,-1.5195,-1.5199,-1.5185,-1.5209,-1.5254,-1.5259,-1.5204,-1.5203,-1.5202,0,-1.4806,-1.4863,-1.4903,-1.492,-1.4964,-1.4983,-1.5003,-1.5035,-1.5057,-1.5089,-1.5103,-1.514,-1.5159,-1.5187,-1.5208,-1.5198,-1.5258,-1.5248,-1.5269,-1.5268,-1.528,-1.5279,-1.5328,-1.5294,-1.5294,-1.5293,-1.5293,0,-1.4845,-1.4879,-1.4911,-1.4936,-1.4974,-1.4995,-1.5032,-1.5052,-1.5081,-1.511,-1.5122,-1.515,-1.5175,-1.5206,-1.5223,-1.5263,-1.5272,-1.5283,-1.5287,-1.5281,-1.528,-1.5293,-1.5291,-1.5295,-1.5295,-1.5294,-1.5294,0,-1.4869,-1.4892,-1.4937,-1.4976,-1.4986,-1.5013,-1.5046,-1.5071,-1.509,-1.5127,-1.5136,-1.5167,-1.5204,-1.5227,-1.5274,-1.5285,-1.5329,-1.5333,-1.5318,-1.532,-1.5339,-1.5336,-1.5398,-1.5407,-1.5366,-1.5367,-1.5367,0,-1.4892,-1.4918,-1.496,-1.498,-1.5,-1.5032,-1.5055,-1.5077,-1.51,-1.5139,-1.5159,-1.5197,-1.5228,-1.5287,-1.5313,-1.535,-1.5354,-1.5373,-1.5359,-1.5353,-1.5353,-1.5351,-1.5354,-1.5375,-1.5375,-1.5375,-1.5375,0,-1.4931,-1.4941,-1.4973,-1.5009,-1.5035,-1.5065,-1.5094,-1.511,-1.5137,-1.5162,-1.52,-1.5224,-1.5273,-1.531,-1.5349,-1.5369,-1.5377,-1.538,-1.5386,-1.5381,-1.5371,-1.5376,-1.5323,-1.5378,-1.5378,-1.5377,-1.5377,-1.5377,-1.4955,-1.4979,-1.5011,-1.5046,-1.5071,-1.5098,-1.5123,-1.5146,-1.5178,-1.5218,-1.5229,-1.5269,-1.5302,-1.5354,-1.5376,-1.5407,-1.5405,-1.5414,-1.5417,-1.5419,-1.5419,-1.5366,-1.5415,-1.5414,-1.5414,-1.5414,-1.5414,0,-1.4994,-1.5016,-1.5048,-1.5088,-1.5116,-1.5121,-1.5154,-1.5177,-1.5211,-1.5241,-1.5272,-1.5315,-1.5352,-1.5381,-1.5419,-1.5438,-1.5443,-1.5447,-1.5446,-1.545,-1.5419,-1.5409,-1.5443,-1.5443,-1.5443,-1.5443,-1.5443,-1.5443,-1.5017,-1.5058,-1.5072,-1.5124,-1.5146,-1.5184,-1.5203,-1.5228,-1.5252,-1.53,-1.533,-1.5349,-1.5379,-1.5419,-1.5453,-1.5461,-1.5474,-1.5478,-1.5486,-1.5456,-1.5453,-1.545,-1.5441,-1.548,-1.548,-1.5515,-1.5515,-1.5515]}]]